Location: Newark
(42.9277°N, 71.8621°W)
Time: 20:14:26
(UTC+00:00)

Transit 4A - Pass Details

Date: 15 May 2021
Orbit: 872 x 973 km, 66.8° (Epoch: 15 June)

Event Time Altitude Azimuth Distance (km) Brightness Sun altitude
Rises 04:46:30 0° 336° (NNW) 3,507 11.9 -28.1°
Reaches altitude 10° 04:51:18 10° 11° (N) 2,545 11.1 -28.1°
Maximum altitude 04:52:59 11° 28° (NNE) 2,454 10.9 -28.1°
Drops below altitude 10° 04:54:40 10° 45° (NE) 2,533 10.7 -28.1°
Sets 04:59:23 0° 79° (E) 3,461 11.1 -28.0°
